Погода в Чибите

Россия / Республика Алтай     50°19′04″N   87°30′22″E
темп.,
°C
ветер,
м/с
пор.,
м/с
влажн.,
%
обл.,
%
осадки,
мм/ч
давл.,
гПа
погр.,
м
27 ноября, сб
сб2701:00−22ююз2198100 0.4 104210
04:00−24ююз2296100 0.1 104610
07:00−25ю329427 0.1 104911
10:00−22ююз228910 0.0 104726
13:00−15зюз126844 0.0 1042322
16:00−16юз228087 0.0 104417
19:00−21ююз326997 0.0 105014
22:00−19ююз2271100 0.0 104819
28 ноября, вс
вс2801:00−18ююз2273100 0.0 104719
04:00−17ююз327598 0.0 104619
07:00−16ю3285100 0.0 104420
10:00−12юз228895 0.0 104174
13:00−8зюз2391100 0.4 1036252
16:00−8з3394100 0.4 1037205
19:00−10зюз2295100 0.6 103937
22:00−12ююз2193100 0.1 104110
29 ноября, пн
пн2901:00−13ю228872 0.1 104412
04:00−15ю32839 0.0 104514
07:00−15ююв338212 0.0 104526
10:00−13ююв34819 0.0 104257
13:00−6юв12725 0.0 1034146
16:00−8юв228549 0.0 103330
19:00−13ююв33755 0.0 103923
22:00−13ююв337157 0.0 103927
30 ноября, вт
вт3001:00−13ююв337153 0.0 103824
04:00−14ю337135 0.0 103822
07:00−14ююв33705 0.0 103820
10:00−12ююв337164 0.0 103626
13:00−5ююв016673 0.0 1030115
16:00−8ю118621 0.0 103210
19:00−14ю33749 0.0 103917
22:00−14ююв33715 0.0 104021
1 декабря, ср
ср101:00−14ююв33715 0.0 104024
04:00−15ююв33705 0.0 104025
07:00−15ююв33674 0.0 104028
10:00−13ююв34643 0.0 103947
13:00−6вюв23640 0.0 1032113
16:00−8юв33690 0.0 103329
19:00−13ююв44510 0.0 103830
22:00−13ююв44480 0.0 103835